Regional Weather Roundup
Issued by NWS Albany, NY

Home | Current Version | Previous Version | Text Only | Print | Product List | Glossary On
Versions: 1 2 3 4 5 6 7 8 9 10 11 12 13 14 15 16 17 18 19 20 21 22 23 24 25 26 27 28 29 30 31 32 33 34 35 36 37 38 39 40 41 42 43 44 45 46 47 48 49 50
000
ASUS41 KALY 281310
RWRALY

NEW YORK STATE HOURLY WEATHER ROUNDUP
NATIONAL WEATHER SERVICE ALBANY NY
900 AM EDT THU MAY 28 2015

NOTE: "FAIR" INDICATES FEW OR NO CLOUDS BELOW 12,000 FEET WITH NO
SIGNIFICANT WEATHER AND/OR NO OBSTRUCTIONS TO VISIBILITY.

NYZ032-033-038>043-046>054-057>066-NYZ062>081-281400-
EAST


CITY           SKY/WX    TMP DP  RH WIND       PRES   REMARKS
ALBANY         PTSUNNY   71  65  81 S13       30.10F
GLENS FALLS    PTSUNNY   71  65  81 SW12      30.09R
POUGHKEEPSIE   MOSUNNY   74  68  81 S7        30.13S
NEWBURGH       PTSUNNY   72  70  94 W9        30.16S
MONTGOMERY     PTSUNNY   74  69  85 SW10      30.14S
WHITE PLAINS   CLOUDY    67  64  90 VRB5      30.17R FOG
ISLIP          CLOUDY    66  62  87 SW10      30.18S
NEW YORK CITY  CLOUDY    70  63  78 S7        30.17R
CENTRAL PARK   CLOUDY    73  63  70 SE3       30.20R
$$

NYZ005>009-017-018-044>046-055-056-281400-
CENTRAL


CITY           SKY/WX    TMP DP  RH WIND       PRES   REMARKS
FULTON         CLOUDY    60  53  77 W16G24    30.14R
SYRACUSE       PTSUNNY   70  60  70 W16G24    30.11R
ROME           CLOUDY    70  61  73 W12       30.11S
ELMIRA         MOSUNNY   71  61  70 W10       30.16R
BINGHAMTON     PTSUNNY   67  58  72 W14       30.18R
MONTICELLO     CLOUDY    64  64 100 CALM      30.20R
$$

NYZ026>034-041>043-281400-
NORTH


CITY           SKY/WX    TMP DP  RH WIND       PRES   REMARKS
WATERTOWN      CLOUDY    58  53  84 SW9G21    30.09R
FORT DRUM      NOT AVBL
MASSENA        CLOUDY    67  61  81 SW13      30.02S
SARANAC LAKE   CLOUDY    63  60  90 SW7       30.07S
PLATTSBURGH    CLOUDY    67  64  90 CALM      30.04R
$$

NYZ001>004-010>016-019>021-281400-
WEST


CITY           SKY/WX    TMP DP  RH WIND       PRES   REMARKS
NIAGARA FALLS  MOSUNNY   63  52  67 NW12      30.20R
BUFFALO        PTSUNNY   63  52  67 NW9       30.21R
DUNKIRK        SUNNY     62  53  72 VRB5      30.25R
JAMESTOWN      SUNNY     59  52  77 NW10      30.26R
WELLSVILLE     MOSUNNY   64  54  69 W13G23    30.24R
ROCHESTER      CLOUDY    62  53  72 W14       30.17R
PENN YAN       PTSUNNY   68  53  58 W17G25    30.15R
$$

             KEY
       WCI = WIND CHILL INDEX
       VSB = VISIBILITY
       HX  = HEAT INDEX
$$



USA.gov is the U.S. government's official web portal to all federal, state and local government web resources and services.